• MPC Preparation (Info)

  • MPEC 2014-V07 : 2014 UG192

    The following Minor Planet Electronic Circular may be linked-to from your own Web pages, but must not otherwise be redistributed electronically.

    A form allowing access to any MPEC is at the bottom of this page.


    Read MPEC 2014-V06 Read MPEC 2014-V08


    M.P.E.C. 2014-V07                                Issued 2014 Nov. 1, 14:58 UT
    
         The Minor Planet Electronic Circulars contain information on unusual
             minor planets and routine data on comets.  They are published
       on behalf of Commission 20 of the International Astronomical Union by the
              Minor Planet Center, Smithsonian Astrophysical Observatory,
                              Cambridge, MA 02138, U.S.A.
    
                 Prepared using the Tamkin Foundation Computer Network
    
                                  MPC@CFA.HARVARD.EDU
                URL https://www.minorplanetcenter.net/    ISSN 1523-6714
    
                                      2014 UG192
    
    Observations:
         K14UJ2G* C2014 10 30.44202 01 56 19.74 +22 39 40.1                qEV007G96
         K14UJ2G  C2014 10 30.44394 01 56 19.36 +22 39 44.8          20.6 VqEV007G96
         K14UJ2G  C2014 10 30.44585 01 56 19.01 +22 39 49.4          19.9 VqEV007G96
         K14UJ2G  C2014 10 30.44777 01 56 18.61 +22 39 54.1          20.3 VqEV007G96
         K14UJ2G  C2014 10 30.48101 01 56 12.66 +22 41 11.9          21.4 VqEV007I52
         K14UJ2G  C2014 10 30.48212 01 56 12.41 +22 41 15.2                qEV007I52
         K14UJ2G  C2014 10 30.48434 01 56 12.01 +22 41 20.1                qEV007I52
         K14UJ2G  C2014 10 30.49436 01 56 10.27 +22 41 44.4          21.0 VqEV007G96
         K14UJ2G  C2014 10 30.49503 01 56 10.22 +22 41 45.7          20.1 VqEV007G96
         K14UJ2G  C2014 10 30.49570 01 56 10.05 +22 41 47.1          20.0 VqEV007G96
         K14UJ2G  C2014 10 30.49637 01 56 09.96 +22 41 48.8          20.1 VqEV007G96
         K14UJ2G KC2014 10 31.18146 01 54 19.53 +23 09 04.2          20.4 RoEV007291
         K14UJ2G KC2014 10 31.18262 01 54 19.32 +23 09 07.0          21.3 RoEV007291
         K14UJ2G KC2014 10 31.18379 01 54 19.11 +23 09 09.8          20.8 RoEV007291
         K14UJ2G  C2014 11 01.18048 01 51 43.02 +23 45 25.1          21.3 VqEV007G96
         K14UJ2G  C2014 11 01.18483 01 51 42.39 +23 45 34.1          20.6 VqEV007G96
         K14UJ2G  C2014 11 01.18917 01 51 41.66 +23 45 43.4                qEV007G96
         K14UJ2G  C2014 11 01.19352 01 51 40.99 +23 45 52.9          21.9 VqEV007G96
         K14UJ2G  C2014 11 01.23789 01 51 33.67 +23 47 26.2          20.4 VqEV007G96
         K14UJ2G  C2014 11 01.24744 01 51 32.05 +23 47 46.8          21.3 VqEV007G96
         K14UJ2G  C2014 11 01.25701 01 51 30.46 +23 48 06.1          20.4 VqEV007G96
         K14UJ2G  C2014 11 01.26657 01 51 28.88 +23 48 25.6          20.8 VqEV007G96
    
    Observer details:
    291 LPL/Spacewatch II.  Observer R. A. Mastaler.  1.8-m f/2.7 reflector + CCD.
    G96 Mt. Lemmon Survey.  Observers A. R. Gibbs, R. A. Kowalski.  Measurers
        E. J. Christensen, A. R. Gibbs, A. D. Grauer, R. E. Hill, J. A. Johnson,
        R. A. Kowalski, S. M. Larson, F. C. Shelly.  1.5-m reflector + CCD.
    I52 Steward Observatory, Mt. Lemmon Station.  Observer A. R. Gibbs.  Measurers
        E. J. Christensen, A. R. Gibbs, A. D. Grauer, R. E. Hill, J. A. Johnson,
        R. A. Kowalski, S. M. Larson, F. C. Shelly.  1.0-m reflector + CCD.
    
    Orbital elements:
    2014 UG192                                               Earth MOID = 0.0629 AU
    Epoch 2014 Dec. 9.0 TT = JDT 2457000.5                  MPC
    M  52.64296              (2000.0)            P               Q
    n   0.48855037     Peri.  284.61254     +0.69046887     +0.71303293
    a   1.5966013      Node    30.21291     -0.53474607     +0.61653940
    e   0.4657478      Incl.   14.00794     -0.48713384     +0.33386106
    P   2.02           H   23.4           G   0.15           U   8
    Residuals in seconds of arc
    141030 G96  0.4+  0.0     141030 G96  0.8+  0.0     141101 G96  0.4-  0.3-
    141030 G96  0.0   0.2+    141030 G96  0.1+  0.2-    141101 G96  0.2+  0.0
    141030 G96  0.0   0.2+    141030 G96  0.5+  0.1-    141101 G96  0.7+  0.1-
    141030 G96  0.7-  0.3+    141031 291  0.1+  0.0     141101 G96  0.2+  0.6+
    141030 I52  0.1+  0.7-    141031 291  0.1+  0.1+    141101 G96  0.2+  0.1+
    141030 I52  0.6-  0.0     141031 291  0.1+  0.1+    141101 G96  0.4+  0.2-
    141030 I52  0.7-  0.4-    141101 G96  1.4-  0.1-
    141030 G96  0.2-  0.3+    141101 G96  0.2-  0.3-
    
    Ephemeris:
    2014 UG192               a,e,i = 1.60, 0.47, 14                  q = 0.8530
    Date    TT    R. A. (2000) Decl.     Delta      r     Elong.  Phase     V
    2014 10 02    07 38 47.7 -50 23 51   0.09053 0.9842    76.7    98.2    21.7
    ...
    2014 10 17    03 09 14.8 +01 51 18   0.09140 1.0793   153.4    24.4    19.5
    ...
    2014 10 25    02 16 16.9 +17 39 08   0.1408  1.1343   172.6     6.5    19.9
    ...
    2014 10 31    01 54 47.8 +23 02 13   0.1865  1.1766   169.2     9.1    20.7
    2014 11 01    01 52 09.0 +23 39 14   0.1946  1.1837   168.0    10.0    20.9
    2014 11 02    01 49 43.0 +24 12 49   0.2028  1.1908   166.9    10.9    21.0
    ...
    2014 11 08    01 38 50.0 +26 39 22   0.2547  1.2337   160.3    15.7    21.7
    ...
    2014 11 16    01 31 34.5 +28 24 35   0.3301  1.2910   152.6    20.7    22.6
    ...
    2014 12 01    01 31 56.4 +29 46 00   0.4896  1.3971   140.0    27.0    23.8
    
    A. U. Tomatic                (C) Copyright 2014 MPC           M.P.E.C. 2014-V07
    

    Read MPEC 2014-V06 Read MPEC 2014-V08


    MPEC number:

    Enter an MPEC number in one of the following forms:

    • 1997-B01 (the full form)
    • J97B01 (the packed version of the full form)
    • B01 (the abbreviated form)